Карточка аэропорта UHWW

Внимание!
Информация на этой странице в стадии наполнения.
Если вы не увидели какой-то информации, или заметили неточность - пожалуйста сообщите нам!
Спасибо!
Команда RU-STAFF
Название аэропортаКневичи
Название аэропорта (англ.)Knevichi
Превышение59 ft. (18 m.)
Координаты43°23.886', 132°8.9400000000001'
Высота перехода7000ft
Эшелон переходаQNH>=1013hPa: FL80; 1013hPa>QNH>=977hPa: FL90; QNH<977hPa: FL100
Коды ответчика5050-5077
Зона ОрВДХабаровск РПИ (UHHH)
Данные METARUHWW 160830Z 24002MPS 9999 FEW033CB 20/17 Q0998 R25L/290160 TEMPO -TSRA RMK QFE747
Проноз погоды (TAF)UHWW 160800Z 1609/1709 24003G08MPS 9999 BKN020CB TEMPO 1609/1611 -TSRA BKN016CB BECMG 1611/1612 22003MPS FEW002 BKN016CB TEMPO 1612/1622 0300 FG
NOTAMshow/hide NOTAM
AWOS   TABLE

Информация о ВПП

ВПП Длина ВПП (м.) Покрытие Курс ВПП Частота ILS
07R3500Бетон71109.3
25L3500Бетон251110.1

Диспетчерские позиции

Позывной Наименование органа УВД Частота
UHWW-FM1Машина сопровождения121.700
UHWW_APPВладивосток-Подход124.7
UHWW_GNDВладивосток-Руление121.7
UHWW_R_APPВладивосток-Круг123.4
UHWW_TWRВладивосток-Старт119.5



Спутниковое изображение